Regional Weather Roundup
Issued by NWS Sioux Falls, SD

Home | Current Version | Previous Version | Text Only | Print | Product List | Glossary On
Versions: 1 2 3 4 5 6 7 8 9 10 11 12 13 14 15 16 17 18 19 20 21 22 23 24 25 26 27 28 29 30 31 32 33 34 35 36 37 38 39 40 41 42 43 44 45 46 47 48 49 50
000
ASUS43 KFSD 290610
RWRFSD

WEATHER ROUNDUP FOR SE SOUTH DAKOTA/SW MINNESOTA/NW IOWA
NATIONAL WEATHER SERVICE SIOUX FALLS SD
100 AM CDT MON MAY 29 2017

NOTE: "FAIR" INDICATES FEW OR NO CLOUDS BELOW 12,000 FEET WITH NO
SIGNIFICANT WEATHER AND OR OBSTRUCTIONS TO VISIBILITY.


SDZ038>040-050-052>070-290700-
SOUTHEAST SOUTH DAKOTA

CITY           SKY/WX    TMP DP  RH WIND       PRES   REMARKS
BROOKINGS      CLEAR     49  45  86 W8        29.90R
CHAMBERLAIN    MOCLDY    55  46  72 CALM      29.95S
6HR MIN TEMP:  55; 6HR MAX TEMP:  74;

HURON          CLEAR     45  43  93 NW6       29.92R
6HR MIN TEMP:  45; 6HR MAX TEMP:  72; 6HR PCP: TRACE;

MADISON        CLOUDY    50  50 100 NW10      29.91R
MITCHELL       PTCLDY    54  48  80 W6        29.91F
6HR MIN TEMP:  54; 6HR MAX TEMP:  75; 6HR PCP: TRACE;

SIOUX FALLS    CLEAR     52  47  83 W6        29.88F
6HR MIN TEMP:  49; 6HR MAX TEMP:  74; 6HR PCP: TRACE;

WINNER         FAIR      51  47  86 NW6       29.99R
YANKTON        PTCLDY    53  48  83 N3        29.92R
$$

MNZ071-072-080-081-089-090-097-098-290700-
SOUTHWEST MINNESOTA

CITY           SKY/WX    TMP DP  RH WIND       PRES   REMARKS
FAIRMONT       CLEAR     57  44  62 W13       29.82S
JACKSON        PTCLDY    55  45  67 W14G21    29.84F
LUVERNE        PTCLDY    52  45  76 W8        29.88R
MARSHALL       CLEAR     53  43  68 W10       29.85S
6HR MIN TEMP:  53; 6HR MAX TEMP:  67; 6HR PCP: TRACE;

MONTEVIDEO     CLEAR     54  45  71 NW8       29.82S
PIPESTONE      PTCLDY    54  45  71 NW6       29.87F
REDWOOD FALLS  CLEAR     55  43  63 W13       29.81S
TRACY          CLEAR     54  45  69 NW9       29.85S
WINDOM         PTCLDY    55  45  67 NW18G25   29.84S
WORTHINGTON    MOCLDY    54  46  74 W13       29.87R
$$

IAZ001>003-012>014-020>022-031-032-NEZ013-014-SDZ071-290700-
NORTHWEST IOWA

CITY           SKY/WX    TMP DP  RH WIND       PRES   REMARKS
CHEROKEE       PTCLDY    52  48  87 CALM      29.87S
DENISON        PTCLDY    57  45  62 N3        29.87S
ESTHERVILLE    CLEAR     54  47  77 W13       29.83S
LE MARS        CLEAR     52  46  82 CALM      29.90R
ORANGE CITY    CLEAR     52  46  82 W3        29.89S
SHELDON        PTCLDY    50  45  81 SW7       29.87R
SIOUX CITY     CLEAR     56  46  69 NW5       29.88S
6HR MIN TEMP:  54; 6HR MAX TEMP:  77;

SPENCER        CLEAR     50  47  89 W3        29.85F
6HR MIN TEMP:  50; 6HR MAX TEMP:  73; 6HR PCP:  0.01;

STORM LAKE     CLEAR     55  45  67 NW9       29.86R
$$

ABBREVIATIONS USED IN REMARKS
   TC - TEMPERATURE IN CELSIUS
  WCI - WIND CHILL INDEX
   HX - HEAT INDEX
  VSB - VISIBILITY





USA.gov is the U.S. government's official web portal to all federal, state and local government web resources and services.